GW0575 Weather Reports


Display with metric or nautical units.
time (UTC)temp
F
wind
direction
speed
MPH
gust
MPH
rain 1hr
in
rain 24hr
in
rain mn
in
humidity
%
barometer
mb
20260507020518 56 182 4.0 7.0 0.00 0.08 0.08 97 1006.6
20260507015515 56 202 2.0 4.0 0.00 0.08 0.08 97 1006.8
20260507014518 56 187 2.0 4.0 0.00 0.08 0.08 97 1007.0
20260507013518 56 214 4.0 6.0 0.00 0.08 0.08 97 1006.9
20260507012519 56 182 4.0 6.0 0.00 0.08 0.08 97 1007.1
20260507011519 56 201 5.0 7.0 0.00 0.08 0.08 97 1007.0
20260507010516 56 176 4.0 6.0 0.00 0.08 0.08 97 1007.1
20260507005539 56 156 2.0 4.0 0.00 0.08 0.08 97 1007.1
20260507004520 56 207 3.0 4.0 0.01 0.08 0.08 97 1007.1
20260507003520 56 196 5.0 8.0 0.01 0.08 0.08 97 1007.0
20260507002520 56 182 6.0 11.0 0.01 0.08 0.08 97 1007.0
20260507001517 56 198 3.0 7.0 0.01 0.08 0.08 97 1007.1
20260507000517 56 196 4.0 5.0 0.01 0.08 0.08 97 1007.1
20260506235541 56 183 5.0 7.0 0.01 0.08 0.08 96 1007.0
20260506234520 56 168 4.0 6.0 0.00 0.07 0.07 96 1007.0
20260506233517 56 214 7.0 9.0 0.00 0.07 0.07 96 1007.1
20260506232518 55 203 3.0 5.0 0.00 0.07 0.07 96 1007.2
20260506231518 55 202 4.0 6.0 0.01 0.07 0.07 96 1007.3
20260506230518 55 183 8.0 12.0 0.01 0.07 0.07 96 1007.2
20260506225518 56 210 3.0 4.0 0.01 0.07 0.07 96 1007.2
20260506224518 56 193 4.0 5.0 0.01 0.07 0.07 96 1007.0
20260506223519 56 176 4.0 7.0 0.01 0.07 0.07 96 1007.2
20260506222519 56 192 6.0 9.0 0.00 0.07 0.07 95 1007.3
20260506221519 56 178 4.0 7.0 0.00 0.06 0.06 95 1007.6
20260506220516 56 184 5.0 7.0 0.00 0.06 0.06 95 1007.6
20260506215516 56 193 4.0 8.0 0.00 0.06 0.06 94 1007.7
20260506214520 57 178 5.0 9.0 0.00 0.06 0.06 93 1007.7
20260506213519 57 184 3.0 6.0 0.00 0.06 0.06 93 1007.8
20260506212537 57 182 3.0 7.0 0.00 0.06 0.06 93 1007.9
20260506211518 57 182 2.0 5.0 0.00 0.06 0.06 93 1007.9
20260506210540 57 183 8.0 11.0 0.00 0.06 0.06 92 1008.0
20260506205521 57 197 9.0 13.0 0.02 0.06 0.06 92 1008.1
20260506204518 57 177 6.0 9.0 0.03 0.06 0.06 92 1008.0
20260506203517 58 183 6.0 11.0 0.05 0.06 0.06 92 1008.2
20260506202538 58 206 6.0 10.0 0.06 0.06 0.06 92 1008.1
20260506201538 58 206 5.0 7.0 0.06 0.06 0.06 92 1008.3
20260506200518 59 189 6.0 8.0 0.06 0.06 0.06 92 1008.2
20260506195519 59 204 7.0 14.0 0.04 0.04 0.04 89 1008.3
20260506194518 60 204 5.0 8.0 0.03 0.03 0.03 86 1008.6
20260506193518 61 177 4.0 7.0 0.01 0.01 0.01 84 1008.6
20260506192519 62 191 5.0 7.0 0.00 0.00 0.00 80 1008.6
20260506191519 62 171 8.0 15.0 0.00 0.00 0.00 77 1008.2
20260506190519 62 190 5.0 8.0 0.00 0.00 0.00 76 1008.2
20260506185539 62 184 5.0 11.0 0.00 0.00 0.00 76 1008.1
20260506184540 62 181 4.0 7.0 0.00 0.00 0.00 76 1008.1
20260506183519 63 193 5.0 8.0 0.00 0.00 0.00 75 1008.4
20260506182517 63 191 7.0 9.0 0.00 0.00 0.00 74 1008.5
20260506181538 64 181 4.0 7.0 0.00 0.00 0.00 73 1008.3
20260506180538 64 170 7.0 11.0 0.00 0.00 0.00 73 1008.5
20260506175517 65 201 7.0 11.0 0.00 0.00 0.00 72 1008.8
20260506173517 65 206 6.0 9.0 0.00 0.00 0.00 71 1008.8
20260506172517 65 180 6.0 10.0 0.00 0.00 0.00 70 1008.5
20260506171538 65 172 6.0 10.0 0.00 0.00 0.00 71 1008.8
20260506170521 65 171 9.0 12.0 0.00 0.00 0.00 70 1007.3
20260506165518 65 167 5.0 8.0 0.00 0.00 0.00 72 1008.4
20260506164518 64 185 7.0 11.0 0.00 0.00 0.00 72 1008.8
20260506163518 65 174 6.0 9.0 0.00 0.00 0.00 71 1008.9
20260506162519 64 195 5.0 7.0 0.00 0.00 0.00 71 1008.8
20260506161539 65 175 9.0 12.0 0.00 0.00 0.00 72 1009.3
20260506160519 65 173 6.0 12.0 0.00 0.00 0.00 71 1009.2
20260506155519 65 192 4.0 7.0 0.00 0.00 0.00 71 1009.4
20260506154519 65 190 4.0 8.0 0.00 0.00 0.00 72 1009.1
20260506153519 65 180 5.0 10.0 0.00 0.00 0.00 70 1008.8
20260506152517 65 187 9.0 12.0 0.00 0.00 0.00 71 1009.1
20260506151517 64 177 8.0 11.0 0.00 0.00 0.00 71 1009.5
20260506150520 64 168 7.0 9.0 0.00 0.00 0.00 73 1009.5
20260506145520 64 172 5.0 10.0 0.00 0.00 0.00 73 1009.7
20260506144540 64 180 6.0 9.0 0.00 0.00 0.00 72 1009.7
20260506143517 64 184 8.0 16.0 0.00 0.00 0.00 73 1009.7
20260506142558 64 216 6.0 10.0 0.00 0.00 0.00 72 1009.5
20260506141518 65 173 7.0 10.0 0.00 0.00 0.00 71 1009.3
20260506140518 66 163 6.0 9.0 0.00 0.00 0.00 70 1009.4
20260506135518 66 181 7.0 9.0 0.00 0.00 0.00 69 1009.0
20260506134518 66 184 7.0 12.0 0.00 0.00 0.00 69 1008.8
20260506133518 64 167 4.0 8.0 0.00 0.00 0.00 71 1009.2
20260506132519 63 184 5.0 9.0 0.00 0.00 0.00 74 1009.5
20260506131519 62 203 4.0 6.0 0.00 0.00 0.00 76 1009.7
20260506130540 62 178 4.0 8.0 0.00 0.00 0.00 77 1010.0
20260506125519 61 192 3.0 5.0 0.00 0.00 0.00 79 1010.1
20260506124519 60 165 3.0 5.0 0.00 0.00 0.00 81 1009.9
20260506123519 60 173 8.0 11.0 0.00 0.00 0.00 82 1010.0
20260506122516 60 192 2.0 4.0 0.00 0.00 0.00 82 1009.5
20260506121517 59 195 8.0 11.0 0.00 0.00 0.00 84 1010.0
20260506120520 58 187 7.0 10.0 0.00 0.00 0.00 85 1011.1
20260506115520 59 198 8.0 10.0 0.00 0.00 0.00 84 1010.7
20260506114518 58 199 5.0 8.0 0.00 0.00 0.00 85 1010.6
20260506113518 58 204 6.0 9.0 0.00 0.00 0.00 85 1010.5
20260506112537 57 189 4.0 8.0 0.00 0.00 0.00 87 1010.6
20260506111538 57 182 3.0 6.0 0.00 0.00 0.00 88 1010.9
20260506110521 57 190 2.0 3.0 0.00 0.00 0.00 89 1011.0
20260506105518 57 161 4.0 6.0 0.00 0.00 0.00 89 1011.1
20260506104519 57 191 2.0 4.0 0.00 0.00 0.00 89 1011.1
20260506103519 56 175 4.0 9.0 0.00 0.00 0.00 90 1011.1
20260506102539 56 171 4.0 6.0 0.00 0.00 0.00 90 1011.1
20260506101536 56 156 3.0 7.0 0.00 0.00 0.00 91 1011.1
20260506100517 56 182 3.0 4.0 0.00 0.00 0.00 91 1011.1
20260506095536 56 172 5.0 7.0 0.00 0.00 0.00 91 1011.0
20260506094520 56 191 2.0 3.0 0.00 0.00 0.00 90 1011.1
20260506093518 56 176 3.0 4.0 0.00 0.00 0.00 90 1011.1
20260506092557 56 160 4.0 8.0 0.00 0.00 0.00 90 1011.1
20260506091517 56 172 3.0 5.0 0.00 0.00 0.00 89 1011.2
20260506090521 56 184 3.0 5.0 0.00 0.00 0.00 89 1011.2
20260506085602 56 172 3.0 4.0 0.00 0.00 0.00 89 1011.2
20260506084518 56 165 2.0 4.0 0.00 0.00 0.00 89 1011.3
20260506083538 57 169 3.0 5.0 0.00 0.00 0.00 88 1011.4
20260506082518 57 174 3.0 5.0 0.00 0.00 0.00 88 1011.3
20260506081518 57 163 3.0 5.0 0.00 0.00 0.00 87 1011.4
20260506080518 57 178 3.0 5.0 0.00 0.00 0.00 87 1011.5
20260506073520 57 197 3.0 5.0 0.00 0.00 0.00 86 1011.2
20260506072539 57 197 5.0 6.0 0.00 0.00 0.00 85 1011.3
20260506071516 58 183 5.0 7.0 0.00 0.00 0.00 84 1011.1
20260506070520 58 194 4.0 7.0 0.00 0.00 0.00 84 1011.2
20260506061517 59 211 6.0 10.0 0.00 0.00 0.00 81 1010.9
20260506060517 59 178 4.0 8.0 0.00 0.00 0.00 81 1010.9
20260506050518 58 199 3.0 5.0 0.00 0.00 0.00 81 1011.6
20260506044519 57 171 3.0 8.0 0.00 0.00 0.00 81 1011.9
20260506043519 57 174 3.0 4.0 0.00 0.00 0.00 81 1011.9
20260506042519 57 166 4.0 7.0 0.00 0.00 0.00 80 1011.8
20260506041539 57 173 3.0 5.0 0.00 0.00 0.00 79 1011.8
20260506040517 58 170 6.0 8.0 0.00 0.00 0.00 78 1011.7
20260506035537 58 178 3.0 8.0 0.00 0.00 0.00 77 1011.8
20260506034520 58 178 5.0 7.0 0.00 0.00 0.00 76 1011.6
20260506033517 58 197 3.0 5.0 0.00 0.00 0.00 76 1011.7
20260506032517 58 190 6.0 10.0 0.00 0.00 0.00 75 1011.6
20260506031517 58 164 3.0 5.0 0.00 0.00 0.00 75 1011.7
20260506030517 58 176 4.0 6.0 0.00 0.00 0.00 75 1011.7
20260506025518 58 180 5.0 8.0 0.00 0.00 0.00 74 1011.6
20260506024517 58 166 5.0 8.0 0.00 0.00 0.00 74 1011.7
20260506023538 58 180 6.0 10.0 0.00 0.00 0.00 73 1011.6
20260506022538 59 176 4.0 6.0 0.00 0.00 0.00 73 1011.6
20260506021518 59 166 6.0 8.0 0.00 0.00 0.00 72 1011.5